Location: Clarks Summit,Pa.
(41.5000°N, 75.6000°W)
Time: 14:08:14
(UTC-04:00)

Tiangong 2 - Pass Details

Date: 25 June 2019
Orbit: 378 x 386 km, 42.8° (Epoch: 15 July)

Event Time Altitude Azimuth Distance (km) Brightness Sun altitude
Exits shadow 04:47:53 - 221° (SW) 1,439 3.3 -7.1°
Reaches altitude 10° 04:48:01 10° 221° (SW) 1,392 3.2 -7.1°
Maximum altitude 04:50:53 34° 154° (SSE) 658 2.1 -6.7°
Drops below altitude 10° 04:53:47 10° 88° (E) 1,403 4.8 -6.3°
Sets 04:55:58 0° 78° (ENE) 2,260 6.3 -6.0°
